FW5940 Weather Reports


Display with metric or nautical units.
time (UTC)temp
F
wind
direction
speed
MPH
gust
MPH
rain 1hr
in
rain 24hr
in
rain mn
in
humidity
%
barometer
mb
20260902030016 53 159 0.0 1.0 0.00 0.00 0.00 89 1021.8
20260902025056 53 159 0.0 1.0 0.00 0.00 0.00 89 1022.0
20260902024037 53 0.0 0.0 0.00 0.00 0.00 88 1022.1
20260902023016 53 159 1.0 2.0 0.00 0.00 0.00 88 1022.1
20260902022018 53 0.0 0.0 0.00 0.00 0.00 88 1022.2
20260902021016 53 0.0 0.0 0.00 0.00 0.00 88 1022.1
20260902020015 53 0.0 0.0 0.00 0.00 0.00 88 1022.1
20260902015016 53 0.0 0.0 0.00 0.00 0.00 88 1022.2
20260902014036 54 0.0 0.0 0.00 0.00 0.00 88 1022.2
20260902013018 54 0.0 0.0 0.00 0.00 0.00 87 1022.2
20260902012016 54 0.0 0.0 0.00 0.00 0.00 87 1022.2
20260902011016 54 0.0 0.0 0.00 0.00 0.00 87 1022.2
20260902010018 54 159 0.0 1.0 0.00 0.00 0.00 87 1022.2
20260902005016 54 159 0.0 2.0 0.00 0.00 0.00 88 1022.2
20260902004017 54 109 1.0 3.0 0.00 0.00 0.00 87 1022.3
20260902003016 54 0.0 0.0 0.00 0.00 0.00 87 1022.3
20260902002038 55 86 0.0 1.0 0.00 0.00 0.00 87 1022.3
20260902001016 55 86 0.0 1.0 0.00 0.00 0.00 87 1022.3
20260902000016 55 70 0.0 1.0 0.00 0.00 0.00 87 1022.3
20260901235018 55 68 0.0 1.0 0.00 0.00 0.00 86 1022.4
20260901234016 55 0.0 0.0 0.00 0.00 0.00 86 1022.4
20260901233022 55 58 0.0 2.0 0.00 0.00 0.00 86 1022.4
20260901232017 55 0.0 0.0 0.00 0.00 0.00 86 1022.4
20260901231019 56 0.0 0.0 0.00 0.00 0.00 86 1022.4
20260901230038 56 0.0 0.0 0.00 0.00 0.00 86 1022.5
20260901225017 56 0.0 0.0 0.00 0.00 0.00 86 1022.5
20260901224016 56 0.0 0.0 0.00 0.00 0.00 86 1022.5
20260901223038 56 0.0 0.0 0.00 0.00 0.00 85 1022.5
20260901222016 56 0.0 0.0 0.00 0.00 0.00 85 1022.4
20260901221016 57 0.0 0.0 0.00 0.00 0.00 85 1022.5
20260901220017 57 0.0 0.0 0.00 0.00 0.00 84 1022.6
20260901215037 57 0.0 0.0 0.00 0.00 0.00 84 1022.7
20260901214019 58 0.0 0.0 0.00 0.00 0.00 84 1022.6
20260901213016 58 0.0 0.0 0.00 0.00 0.00 84 1022.6
20260901212017 58 0.0 0.0 0.00 0.00 0.00 83 1022.6
20260901211017 59 0.0 0.0 0.00 0.00 0.00 83 1022.6
20260901210035 59 0.0 0.0 0.00 0.00 0.00 83 1022.6
20260901205017 59 20 0.0 2.0 0.00 0.00 0.00 83 1022.6
20260901204016 60 20 0.0 1.0 0.00 0.00 0.00 82 1022.5
20260901203038 60 0.0 0.0 0.00 0.00 0.00 82 1022.4
20260901202017 61 0.0 0.0 0.00 0.00 0.00 81 1022.3
20260901201017 61 0.0 0.0 0.00 0.00 0.00 80 1022.2
20260901200018 62 0.0 0.0 0.00 0.00 0.00 80 1022.2
20260901195017 62 0.0 0.0 0.00 0.00 0.00 79 1022.1
20260901194038 62 0.0 0.0 0.00 0.00 0.00 78 1022.1
20260901193016 63 0.0 0.0 0.00 0.00 0.00 78 1022.0
20260901192038 63 20 0.0 1.0 0.00 0.00 0.00 77 1022.0
20260901191037 63 0.0 0.0 0.00 0.00 0.00 76 1022.0
20260901190038 64 0.0 0.0 0.00 0.00 0.00 75 1021.9
20260901185016 64 0.0 0.0 0.00 0.00 0.00 74 1021.8
20260901184036 65 0.0 0.0 0.00 0.00 0.00 73 1021.7
20260901183018 66 20 0.0 1.0 0.00 0.00 0.00 71 1021.6
20260901182016 66 20 0.0 2.0 0.00 0.00 0.00 69 1021.5
20260901181017 67 18 1.0 3.0 0.00 0.00 0.00 67 1021.3
20260901180016 68 17 1.0 2.0 0.00 0.00 0.00 65 1021.3
20260901175019 69 21 2.0 4.0 0.00 0.00 0.00 65 1021.2
20260901174018 69 4 2.0 5.0 0.00 0.00 0.00 64 1021.2
20260901173116 70 355 1.0 4.0 0.00 0.00 0.00 62 1021.1
20260901172017 71 359 3.0 7.0 0.00 0.00 0.00 61 1021.1
20260901171019 72 355 3.0 7.0 0.00 0.00 0.00 58 1021.1
20260901170017 72 326 5.0 9.0 0.00 0.00 0.00 56 1021.0
20260901165018 72 307 2.0 4.0 0.00 0.00 0.00 56 1021.1
20260901164019 73 335 2.0 6.0 0.00 0.00 0.00 55 1021.0
20260901163016 73 356 3.0 9.0 0.00 0.00 0.00 54 1021.0
20260901162018 73 286 3.0 5.0 0.00 0.00 0.00 54 1021.0
20260901161021 73 360 2.0 4.0 0.00 0.00 0.00 53 1020.9
20260901160016 74 323 3.0 8.0 0.00 0.00 0.00 54 1020.8
20260901155020 74 318 4.0 9.0 0.00 0.00 0.00 54 1020.8
20260901154018 74 338 6.0 11.0 0.00 0.00 0.00 53 1020.9
20260901153039 74 354 4.0 8.0 0.00 0.00 0.00 53 1020.9
20260901152018 74 285 2.0 4.0 0.00 0.00 0.00 52 1021.0
20260901151018 74 267 4.0 9.0 0.00 0.00 0.00 52 1020.9
20260901150015 74 281 3.0 8.0 0.00 0.00 0.00 53 1021.0
20260901145015 74 315 3.0 8.0 0.00 0.00 0.00 52 1021.0
20260901144017 73 330 3.0 8.0 0.00 0.00 0.00 53 1020.9
20260901143017 73 325 4.0 8.0 0.00 0.00 0.00 54 1021.0
20260901142020 74 283 4.0 7.0 0.00 0.00 0.00 55 1021.1
20260901141018 74 333 5.0 10.0 0.00 0.00 0.00 53 1021.2
20260901140015 75 285 5.0 13.0 0.00 0.00 0.00 50 1021.1
20260901135017 75 324 3.0 8.0 0.00 0.00 0.00 50 1021.1
20260901134016 76 242 5.0 10.0 0.00 0.00 0.00 49 1021.1
20260901133019 76 268 4.0 11.0 0.00 0.00 0.00 49 1021.3
20260901132107 76 278 5.0 13.0 0.00 0.00 0.00 50 1021.4
20260901131019 76 249 4.0 9.0 0.00 0.00 0.00 49 1021.5
20260901130017 74 214 3.0 6.0 0.00 0.00 0.00 51 1021.5
20260901125017 76 241 4.0 8.0 0.00 0.00 0.00 49 1021.7
20260901124017 75 258 4.0 9.0 0.00 0.00 0.00 50 1021.8
20260901123016 75 252 4.0 9.0 0.00 0.00 0.00 51 1021.9
20260901122016 76 227 3.0 8.0 0.00 0.00 0.00 50 1021.8
20260901121036 76 228 5.0 9.0 0.00 0.00 0.00 49 1021.9
20260901120017 74 223 4.0 10.0 0.00 0.00 0.00 52 1021.9
20260901115018 75 246 3.0 10.0 0.00 0.00 0.00 50 1022.0
20260901114016 75 236 4.0 8.0 0.00 0.00 0.00 50 1022.1
20260901113016 76 263 4.0 8.0 0.00 0.00 0.00 51 1022.2
20260901112056 73 255 4.0 10.0 0.00 0.00 0.00 54 1022.3
20260901111016 75 269 6.0 14.0 0.00 0.00 0.00 52 1022.3
20260901110016 75 225 5.0 11.0 0.00 0.00 0.00 54 1022.3
20260901105018 73 194 4.0 10.0 0.00 0.00 0.00 56 1022.3
20260901104017 72 265 4.0 9.0 0.00 0.00 0.00 55 1022.4
20260901103015 71 293 4.0 9.0 0.00 0.00 0.00 56 1022.5
20260901102015 72 286 2.0 8.0 0.00 0.00 0.00 55 1022.5
20260901101016 72 282 4.0 8.0 0.00 0.00 0.00 55 1022.6
20260901100016 72 290 6.0 12.0 0.00 0.00 0.00 56 1022.5
20260901095016 72 335 6.0 11.0 0.00 0.00 0.00 56 1022.5
20260901094039 73 263 4.0 10.0 0.00 0.00 0.00 56 1022.5
20260901093016 73 237 4.0 14.0 0.00 0.00 0.00 57 1022.6
20260901092016 72 226 5.0 11.0 0.00 0.00 0.00 58 1022.6
20260901091017 71 220 5.0 9.0 0.00 0.00 0.00 59 1022.6
20260901090015 71 221 3.0 9.0 0.00 0.00 0.00 59 1022.6
20260901085017 70 198 3.0 8.0 0.00 0.00 0.00 60 1022.7
20260901084016 70 220 5.0 9.0 0.00 0.00 0.00 61 1022.7
20260901083019 69 202 4.0 10.0 0.00 0.00 0.00 62 1022.6
20260901082016 69 223 3.0 7.0 0.00 0.00 0.00 63 1022.6
20260901081035 68 268 3.0 6.0 0.00 0.00 0.00 65 1022.6
20260901080039 67 275 4.0 9.0 0.00 0.00 0.00 65 1022.6
20260901075018 66 242 3.0 5.0 0.00 0.00 0.00 68 1022.6
20260901074020 66 229 2.0 5.0 0.00 0.00 0.00 70 1022.6
20260901073017 65 218 4.0 8.0 0.00 0.00 0.00 71 1022.6
20260901072019 65 234 3.0 7.0 0.00 0.00 0.00 73 1022.5
20260901071017 64 240 2.0 7.0 0.00 0.00 0.00 73 1022.5
20260901070017 63 218 2.0 7.0 0.00 0.00 0.00 74 1022.6
20260901065021 63 219 3.0 7.0 0.00 0.00 0.00 75 1022.6
20260901064025 62 222 3.0 9.0 0.00 0.00 0.00 76 1022.5
20260901063040 61 205 2.0 6.0 0.00 0.00 0.00 77 1022.4
20260901062018 60 214 2.0 7.0 0.00 0.00 0.00 79 1022.5
20260901061017 59 214 1.0 3.0 0.00 0.00 0.00 79 1022.4
20260901060016 58 217 2.0 4.0 0.00 0.00 0.00 80 1022.5
20260901055039 57 207 2.0 5.0 0.00 0.00 0.00 81 1022.6
20260901054017 57 187 1.0 3.0 0.00 0.00 0.00 81 1022.4
20260901053019 56 185 2.0 4.0 0.00 0.00 0.00 82 1022.4
20260901052039 56 185 2.0 4.0 0.00 0.00 0.00 82 1022.3
20260901051016 55 166 1.0 4.0 0.00 0.00 0.00 83 1022.3
20260901050038 55 155 0.0 1.0 0.00 0.00 0.00 83 1022.3
20260901045017 56 134 0.0 3.0 0.00 0.00 0.00 82 1022.2
20260901044016 56 177 2.0 6.0 0.00 0.00 0.00 82 1022.1
20260901043017 56 183 1.0 3.0 0.00 0.00 0.00 82 1022.1
20260901042016 56 197 2.0 4.0 0.00 0.00 0.00 82 1022.2
20260901041018 56 200 1.0 2.0 0.00 0.00 0.00 81 1022.0
20260901040036 57 200 1.0 2.0 0.00 0.00 0.00 81 1021.9
20260901035040 57 199 1.0 4.0 0.00 0.00 0.00 81 1022.0
20260901034016 57 198 2.0 4.0 0.00 0.00 0.00 80 1022.0
20260901033015 58 199 3.0 5.0 0.00 0.00 0.00 80 1022.1
20260901032017 58 208 2.0 4.0 0.00 0.01 0.00 80 1022.0
20260901031036 59 203 1.0 5.0 0.00 0.01 0.00 79 1022.1